Change the Weather History Date:

Friday, September 21, 2012

  Actual Average Record
Temperature  
Mean Temperature 72 °F 75 °F  
Max Temperature 87 °F 86 °F 100 °F (1925)
Min Temperature 57 °F 64 °F 46 °F (1918)
Degree Days  
Heating Degree Days 0 0  
Month to date heating degree days 0 0  
Since 1 July heating degree days 0 0  
Cooling Degree Days 7 10  
Month to date cooling degree days 255 267  
Year to date cooling degree days 2421 2056  
Growing Degree Days 22 (Base 50)    
Moisture  
Dew Point 60 °F    
Average Humidity 65    
Maximum Humidity 93    
Minimum Humidity 37    
Precipitation  
Precipitation 0.00 in 0.13 in 4.00 in (1969)
Month to date precipitation 3.70 2.86  
Year to date precipitation 32.71 39.57  
Sea Level Pressure  
Sea Level Pressure 30.03 in    
Wind  
Wind Speed 2 mph (West)    
Max Wind Speed 7 mph    
Max Gust Speed 13 mph    
Visibility 9 miles    
Events      
T = Trace of Precipitation, MM = Missing Value Source: NWS Daily Summary

Daily Weather History Graph

Daily Weather History Graph

Search for Another Location

Airport or City:

Trip Planner

Search our weather history database for the weather conditions in past years. The results will help you decide how hot, cold, wet, or windy it might be!

Date:

Astronomy

Sep. 21, 2012 Rise Set
Actual Time 6:33 AM CDT 6:42 PM CDT
Civil Twilight 6:09 AM CDT 7:07 PM CDT
Nautical Twilight 5:40 AM CDT 7:35 PM CDT
Astronomical Twilight 5:11 AM CDT 8:04 PM CDT
Moon 12:33 PM CDT (9/21) 11:04 PM CDT (9/21)
Length of Visible Light 12h 58m
Length of Day
12h 09m
Waxing Crescent, 37% of the Moon is Illuminated
Sep 21
Waxing Crescent
Sep 22
First Quarter
Sep 29
Full
Oct 8
Last Quarter
Oct 15
New

Hourly Weather History & Observations

Time (CDT) Temp. Heat Index Dew Point Humidity Pressure Visibility Wind Dir Wind Speed Gust Speed Precip Events Conditions
12:53 AM 62.1 °F - 60.1 °F 93% 30.05 in 10.0 mi Calm Calm - N/A   Clear
1:53 AM 60.1 °F - 57.9 °F 93% 30.04 in 9.0 mi Calm Calm - N/A   Clear
2:53 AM 60.1 °F - 57.9 °F 93% 30.04 in 8.0 mi Calm Calm - N/A   Clear
3:53 AM 60.1 °F - 57.0 °F 90% 30.05 in 6.0 mi Calm Calm - N/A   Clear
4:53 AM 57.9 °F - 55.9 °F 93% 30.05 in 2.5 mi Calm Calm - N/A   Clear
5:18 AM 59.0 °F - 55.4 °F 88% 30.06 in 4.0 mi Calm Calm - N/A   Clear
5:53 AM 57.9 °F - 55.9 °F 93% 30.06 in 9.0 mi Calm Calm - N/A   Clear
6:53 AM 60.1 °F - 57.0 °F 90% 30.06 in 9.0 mi Calm Calm - N/A   Clear
7:53 AM 64.0 °F - 60.1 °F 87% 30.07 in 6.0 mi North 4.6 mph - N/A   Partly Cloudy
8:53 AM 69.1 °F - 62.1 °F 78% 30.06 in 10.0 mi Calm Calm - N/A   Clear
9:53 AM 75.9 °F - 59.0 °F 56% 30.07 in 10.0 mi Calm Calm - N/A   Clear
10:53 AM 82.0 °F 82.7 °F 61.0 °F 49% 30.08 in 10.0 mi NW 5.8 mph - N/A   Clear
11:53 AM 82.9 °F 83.2 °F 60.1 °F 46% 30.07 in 10.0 mi NNW 5.8 mph - N/A   Clear
12:53 PM 84.0 °F 83.8 °F 59.0 °F 43% 30.05 in 10.0 mi Variable 3.5 mph - N/A   Clear
1:53 PM 87.1 °F 86.7 °F 60.1 °F 40% 30.01 in 10.0 mi Variable 4.6 mph - N/A   Clear
2:53 PM 87.1 °F 86.7 °F 60.1 °F 40% 30.01 in 10.0 mi WNW 4.6 mph - N/A   Clear
3:53 PM 86.0 °F 85.0 °F 57.9 °F 38% 29.98 in 10.0 mi Calm Calm - N/A   Clear
4:53 PM 84.9 °F 84.4 °F 59.0 °F 41% 29.97 in 10.0 mi SSW 3.5 mph - N/A   Clear
5:53 PM 82.9 °F 83.3 °F 61.0 °F 47% 29.97 in 10.0 mi Calm Calm - N/A   Clear
6:53 PM 78.1 °F - 62.1 °F 58% 29.98 in 10.0 mi West 4.6 mph - N/A   Clear
7:53 PM 73.0 °F - 64.0 °F 73% 29.99 in 10.0 mi WSW 3.5 mph - N/A   Clear
8:53 PM 70.0 °F - 64.0 °F 81% 30.00 in 10.0 mi SSW 3.5 mph - N/A   Clear
9:53 PM 69.1 °F - 64.0 °F 84% 30.01 in 10.0 mi Calm Calm - N/A   Clear
10:53 PM 66.9 °F - 63.0 °F 87% 30.02 in 10.0 mi Calm Calm - N/A   Clear
11:53 PM 66.0 °F - 63.0 °F 90% 30.01 in 10.0 mi Calm Calm - N/A   Clear